Date String (YYYY-MM-DD hh:mm:ss) UTC,Instrument flags,Ambient pressure (hPa),Sample flow (lpm),Bypass flow (lpm),Sample temperature (°C),Ambient temperature (°C),ASC tube jacket temperature (°C),LED temperature (°C),Box temperature (°C),Sample RH (%),Span deviation,Mass concentration (μg/m³),Mass concentration (μg/m³),Mass concentration (μg/m³)
DateTimeUTC,F1_M11,P_M11,Q1_M11,Q2_M11,T1_M11,T2_M11,T3_M11,T4_M11,T5_M11,U1_M11,ZSPAN_M11,X0_M11,X2_M11,X1_M11
2022-03-27 00:00:00,,0822.1,5.02,0.00,29.6,28.1,00.0,38.5,31.4,07.8,0000.0,0006.64,0002.76,0001.26
2022-03-27 00:01:00,,0822.2,5.00,0.00,29.7,28.3,00.0,38.5,31.5,07.9,0000.0,0006.75,0002.82,0001.26
2022-03-27 00:02:00,,0822.2,4.99,0.00,29.7,28.5,00.0,38.6,31.5,07.9,0000.0,0006.48,0002.75,0001.26
2022-03-27 00:03:00,,0822.3,4.99,0.00,29.7,28.6,00.0,38.6,31.6,07.5,0000.0,0006.71,0002.73,0001.26
2022-03-27 00:04:00,,0822.2,5.01,0.00,29.8,28.7,00.0,38.6,31.6,07.4,0000.0,0007.26,0002.77,0001.27
2022-03-27 00:05:00,,0822.2,4.99,0.00,29.8,28.8,00.0,38.6,31.7,07.5,0000.0,0007.61,0002.81,0001.27
2022-03-27 00:06:00,,0822.2,5.00,0.00,29.8,28.8,00.0,38.6,31.7,07.4,0000.0,0007.69,0002.83,0001.26
2022-03-27 00:07:00,,0822.3,5.02,0.00,29.9,28.9,00.0,38.7,31.7,07.4,0000.0,0008.39,0002.86,0001.26
2022-03-27 00:08:00,,0822.3,5.00,0.00,29.9,29.0,00.0,38.7,31.8,07.7,0000.0,0008.53,0002.82,0001.25
2022-03-27 00:09:00,,0822.3,4.99,0.00,29.9,29.0,00.0,38.7,31.8,07.9,0000.0,0008.45,0002.80,0001.25
2022-03-27 00:10:00,,0822.3,5.01,0.00,29.9,28.0,00.0,38.7,31.6,08.0,0000.0,0008.34,0002.76,0001.26
2022-03-27 00:11:00,,0822.3,5.00,0.00,29.8,25.7,00.0,38.7,31.1,08.2,0000.0,0008.37,0002.82,0001.28
2022-03-27 00:12:00,,0822.2,4.99,0.00,29.6,25.2,00.0,38.7,30.9,08.4,0000.0,0008.43,0002.85,0001.29
2022-03-27 00:13:00,,0822.3,5.00,0.00,29.5,25.6,00.0,38.6,30.9,08.1,0000.0,0008.45,0002.86,0001.30
2022-03-27 00:14:00,,0822.3,5.01,0.00,29.5,26.1,00.0,38.6,31.0,08.0,0000.0,0008.39,0002.94,0001.30
2022-03-27 00:15:00,,0822.3,4.99,0.00,29.5,26.6,00.0,38.5,31.1,08.0,0000.0,0008.12,0002.96,0001.30
2022-03-27 00:16:00,,0822.3,5.01,0.00,29.5,27.1,00.0,38.5,31.2,07.9,0000.0,0007.67,0002.87,0001.30
2022-03-27 00:17:00,,0822.3,4.99,0.00,29.5,27.4,00.0,38.5,31.3,07.8,0000.0,0007.54,0002.79,0001.30
2022-03-27 00:18:00,,0822.3,4.99,0.00,29.5,27.7,00.0,38.5,31.3,07.9,0000.0,0006.44,0002.74,0001.30
2022-03-27 00:19:00,,0822.3,5.01,0.00,29.6,28.0,00.0,38.5,31.4,07.8,0000.0,0006.13,0002.80,0001.31
2022-03-27 00:20:00,,0822.3,4.99,0.00,29.6,28.2,00.0,38.5,31.4,07.8,0000.0,0006.46,0002.88,0001.31
2022-03-27 00:21:00,,0822.3,5.00,0.00,29.6,28.3,00.0,38.5,31.5,07.8,0000.0,0006.54,0002.88,0001.32
2022-03-27 00:22:00,,0822.4,5.00,0.00,29.7,28.5,00.0,38.5,31.5,07.8,0000.0,0006.40,0002.82,0001.32
2022-03-27 00:23:00,,0822.3,5.01,0.00,29.7,28.6,00.0,38.5,31.5,07.8,0000.0,0006.21,0002.76,0001.30
2022-03-27 00:24:00,,0822.3,4.99,0.00,29.7,28.6,00.0,38.6,31.6,07.9,0000.0,0006.38,0002.81,0001.31
2022-03-27 00:25:00,,0822.3,4.99,0.00,29.7,28.7,00.0,38.6,31.6,08.0,0000.0,0006.35,0002.81,0001.31
2022-03-27 00:26:00,,0822.3,5.01,0.00,29.8,28.8,00.0,38.6,31.6,08.0,0000.0,0006.87,0002.83,0001.31
2022-03-27 00:27:00,,0822.3,4.99,0.00,29.8,28.8,00.0,38.6,31.6,07.9,0000.0,0007.61,0002.90,0001.31
2022-03-27 00:28:00,,0822.4,4.99,0.00,29.8,28.9,00.0,38.6,31.7,08.0,0000.0,0007.55,0002.92,0001.31
2022-03-27 00:29:00,,0822.3,5.00,0.00,29.9,28.9,00.0,38.7,31.7,08.0,0000.0,0007.56,0002.97,0001.33
2022-03-27 00:30:00,,0822.3,5.01,0.00,29.8,27.2,00.0,38.7,31.4,08.0,0000.0,0007.64,0003.02,0001.34
2022-03-27 00:31:00,,0822.3,5.01,0.00,29.7,26.1,00.0,38.7,31.2,08.1,0000.0,0007.67,0002.98,0001.36
2022-03-27 00:32:00,,0822.3,4.99,0.00,29.6,26.3,00.0,38.6,31.2,08.1,0000.0,0008.35,0003.03,0001.37
2022-03-27 00:33:00,,0822.4,4.99,0.00,29.6,26.7,00.0,38.6,31.2,08.0,0000.0,0008.44,0003.09,0001.36
2022-03-27 00:34:00,,0822.4,5.01,0.00,29.6,27.0,00.0,38.6,31.2,08.1,0000.0,0008.35,0003.02,0001.37
2022-03-27 00:35:00,,0822.4,4.99,0.00,29.6,27.4,00.0,38.5,31.3,08.3,0000.0,0008.28,0002.94,0001.35
2022-03-27 00:36:00,,0822.4,5.00,0.00,29.6,27.7,00.0,38.5,31.3,08.4,0000.0,0008.32,0002.87,0001.35
2022-03-27 00:37:00,,0822.4,5.01,0.00,29.6,27.9,00.0,38.5,31.4,08.4,0000.0,0008.08,0002.80,0001.35
2022-03-27 00:38:00,,0822.4,4.99,0.00,29.6,28.1,00.0,38.6,31.4,08.4,0000.0,0007.54,0002.77,0001.35
2022-03-27 00:39:00,,0822.4,5.00,0.00,29.7,28.3,00.0,38.6,31.4,08.2,0000.0,0007.56,0002.77,0001.36
2022-03-27 00:40:00,,0822.4,5.01,0.00,29.7,28.4,00.0,38.6,31.5,08.2,0000.0,0007.73,0002.83,0001.36
2022-03-27 00:41:00,,0822.4,5.00,0.00,29.7,28.5,00.0,38.6,31.5,08.4,0000.0,0008.30,0002.76,0001.35
2022-03-27 00:42:00,,0822.5,4.99,0.00,29.7,28.6,00.0,38.6,31.5,08.5,0000.0,0008.44,0002.76,0001.34
2022-03-27 00:43:00,,0822.5,5.00,0.00,29.8,28.7,00.0,38.6,31.6,08.5,0000.0,0008.19,0002.78,0001.32
2022-03-27 00:44:00,,0822.4,5.01,0.00,29.8,28.8,00.0,38.6,31.6,08.6,0000.0,0008.26,0002.79,0001.32
2022-03-27 00:45:00,,0822.4,5.01,0.00,29.8,28.9,00.0,38.6,31.6,08.3,0000.0,0008.43,0002.89,0001.34
2022-03-27 00:46:00,,0822.4,4.98,0.00,29.9,28.9,00.0,38.7,31.7,08.3,0000.0,0008.87,0003.08,0001.37
2022-03-27 00:47:00,,0822.4,5.00,0.00,29.8,27.3,00.0,38.7,31.4,08.2,0000.0,0008.74,0003.11,0001.37
2022-03-27 00:48:00,,0822.5,5.00,0.00,29.7,26.0,00.0,38.7,31.1,08.2,0000.0,0009.33,0003.11,0001.37
2022-03-27 00:49:00,,0822.4,5.00,0.00,29.6,26.2,00.0,38.6,31.0,08.3,0000.0,0009.90,0003.11,0001.37
2022-03-27 00:50:00,,0822.4,4.99,0.00,29.5,26.6,00.0,38.6,31.1,08.3,0000.0,0009.92,0003.14,0001.38
2022-03-27 00:51:00,,0822.4,5.01,0.00,29.5,27.0,00.0,38.6,31.2,08.4,0000.0,0009.67,0003.04,0001.37
2022-03-27 00:52:00,,0822.4,5.00,0.00,29.6,27.3,00.0,38.5,31.3,08.3,0000.0,0009.14,0003.05,0001.38
2022-03-27 00:53:00,,0822.5,4.98,0.00,29.6,27.6,00.0,38.5,31.3,08.3,0000.0,0009.14,0003.03,0001.37
2022-03-27 00:54:00,,0822.5,5.01,0.00,29.6,27.9,00.0,38.5,31.3,08.3,0000.0,0009.06,0003.02,0001.37
2022-03-27 00:55:00,,0822.5,5.00,0.00,29.6,28.1,00.0,38.5,31.4,08.4,0000.0,0008.96,0003.03,0001.38
2022-03-27 00:56:00,,0822.4,5.00,0.00,29.6,28.2,00.0,38.6,31.4,08.4,0000.0,0008.83,0002.99,0001.37
2022-03-27 00:57:00,,0822.4,5.01,0.00,29.7,28.4,00.0,38.6,31.5,08.4,0000.0,0008.64,0002.84,0001.35
2022-03-27 00:58:00,,0822.4,4.99,0.00,29.7,28.5,00.0,38.6,31.5,08.2,0000.0,0008.96,0002.88,0001.35
2022-03-27 00:59:00,,0822.5,4.99,0.00,29.7,28.6,00.0,38.6,31.5,08.3,0000.0,0008.36,0002.93,0001.35
